[[{"header":{"parameterUnit":"m.s-1","parameterCategory":1,"la1":30.2991,"la2":30.254,"lo1":-89.0895,"lo2":-89.0444,"dy":0.0017,"dx":0.0017,"nx":28,"ny":28,"refTime":"2024-09-25T21:00:00:Z","depth":0,"parameterNumber":2,"parameterNumberName":"U-component_of_WINDS"},"data":[0,0,0,0,0,0,0,0,0,0,0,0,0,0,0,0,0,0,0,0,0,0,0,0,0,0,0,0,0,0,0,0,0,0,0,0,0,0,0,0,0,0,0,0,0,0,0,0,0,0,0,0,0,0,0,0,0,0,6.483,6.483,0,6.4921,6.4922,6.4923,6.4865,6.4862,6.4859,6.4857,6.4953,6.4958,6.4963,0,0,0,0,0,0,0,0,0,0,0,0,0,6.4606,6.461,6.4829,6.4831,6.4832,6.4921,6.4922,6.4923,6.4865,6.4862,6.4859,6.4855,6.4951,6.4957,6.4963,0,0,0,0,0,0,0,0,0,0,0,0,0,6.4701,6.4612,6.4829,6.4813,6.4813,6.4921,6.4922,6.4924,6.4866,6.4862,6.4858,6.4854,6.4949,6.4956,6.4964,6.5093,0,0,6.4987,6.4991,0,0,0,0,0,0,0,0,6.4695,6.4709,6.4815,6.4815,6.4814,6.4877,6.4878,6.4981,6.4867,6.4846,6.4857,6.4852,6.4931,6.494,6.4966,6.5098,6.5102,6.4988,6.4993,6.4996,6.4998,0,0,0,0,0,0,0,6.4689,6.4705,6.4866,6.4816,6.4816,6.4802,6.4811,6.4898,6.491,6.4847,6.4843,6.4855,6.493,6.4959,6.4968,6.5103,6.4988,6.4995,6.4999,6.5002,6.5346,6.535,0,0,0,0,0,0,6.4683,6.47,6.4863,6.4868,6.4743,6.481,6.482,6.4861,6.4909,6.4913,6.4858,6.4852,6.4948,6.4959,6.4971,6.5125,6.4996,6.5003,6.5008,6.5341,6.5347,6.5351,0,0,0,0,0,0,6.4679,6.4698,6.4859,6.4783,6.4802,6.4818,6.4865,6.4865,6.4894,6.4917,6.492,6.4885,6.4945,6.496,6.5063,6.5128,6.5007,6.5014,6.5336,6.5343,6.5349,6.5435,0,0,0,0,0,0,6.4673,6.4697,6.4746,6.4785,6.4807,6.4949,6.4869,6.487,6.4907,6.4899,6.4943,6.4947,6.4943,6.5052,6.5071,6.5136,6.502,6.533,6.5339,6.5347,6.5427,6.5444,6.5459,0,0,0,0,0,6.4665,6.4767,6.4749,6.4769,6.4868,6.4953,6.4966,6.4959,6.4912,6.4962,6.4977,6.4945,6.5118,6.5063,6.5084,6.5152,6.5326,6.5336,6.5346,6.5419,6.5441,6.5459,0,0,0,0,0,0,6.4736,6.4772,6.4752,6.487,6.4909,6.4943,6.5005,6.4982,6.5035,6.5026,6.5016,6.5027,6.5134,6.5153,6.5092,6.528,6.5215,6.5229,6.5263,6.5284,6.53,6.5292,6.5026,0,0,0,0,0,6.4766,6.4831,6.4859,6.496,6.4981,6.499,6.5027,6.5018,6.5058,6.5075,6.5097,6.5139,6.5202,6.5244,6.5304,6.5429,6.5438,6.5487,6.5503,6.5516,6.5529,6.5597,6.5619,6.5385,6.5385,6.5385,0,0,6.4827,6.4855,6.4897,6.4975,6.5004,6.5073,6.5004,6.508,6.5131,6.5086,6.5184,6.5203,6.5248,6.5363,6.5415,6.5383,6.5596,6.5529,6.554,6.5545,6.561,6.5632,6.5651,6.5392,6.5391,6.5389,0,0,6.4974,6.5002,6.5089,6.512,6.5165,6.517,6.5191,6.5229,6.5239,6.5337,6.5306,6.5367,6.5476,6.5509,6.5541,6.5701,6.5674,6.5721,6.5805,6.5871,6.589,6.5906,6.5963,6.5983,6.5734,6.5734,6.5734,0,6.5045,6.5147,6.5137,6.5215,6.525,6.5213,6.5301,6.5332,6.5395,6.542,6.5383,6.552,6.5548,6.5669,6.5708,6.5735,6.5759,6.5715,6.5888,6.5904,6.5919,6.5973,6.5995,6.5739,6.5739,6.5738,6.5737,0,6.5232,6.5303,6.5368,6.5428,6.5471,6.5554,6.5557,6.5602,6.559,6.5599,6.57,6.5732,6.5798,6.5826,6.5815,6.5947,6.5925,6.5889,6.5823,6.5947,6.5998,6.6018,6.5747,6.5745,6.5743,6.5742,0,0,6.5426,6.548,6.5504,6.5531,6.5578,6.5633,6.5714,6.5778,6.5816,6.5861,6.5929,6.6023,6.5989,6.6024,6.6017,6.6075,6.62,6.6031,6.6032,6.6061,6.6347,6.6373,6.6398,6.6182,6.6186,6.6189,6.6343,0,6.5575,6.5717,6.571,6.5843,6.5908,6.5874,6.5945,6.5982,6.5993,6.605,6.6063,6.6129,6.608,6.6101,6.6157,6.6173,6.6257,6.6162,6.6246,6.6249,6.6235,6.6424,6.6453,6.6596,6.6362,6.6366,6.6368,0,6.5769,6.5819,6.5958,6.5995,6.6022,6.6086,6.6143,6.6199,6.624,6.6244,6.6284,6.6267,6.635,6.6282,6.6397,6.6332,6.6366,6.6379,6.6385,6.6392,6.6316,6.6436,6.6641,6.6663,6.6399,6.6397,6.6395,0,6.5896,6.5999,6.6095,6.6119,6.6165,6.621,6.6232,6.6269,6.6307,6.6358,6.6383,6.6443,6.6476,6.6523,6.6523,6.6474,6.6639,6.6571,6.6644,6.6645,6.668,6.6678,6.6894,6.6704,6.6703,6.6703,6.6702,0,6.6063,6.615,6.6152,6.6212,6.6307,6.6299,6.6395,6.6411,6.6445,6.6507,6.6481,6.654,6.6537,6.6597,6.6598,6.6692,6.6708,6.6713,6.6712,6.6715,6.6715,6.6737,6.6727,6.6708,6.6707,6.6706,6.6705,0,6.6222,6.6227,6.633,6.6364,6.6375,6.6444,6.6474,6.6531,6.6539,6.6618,6.6637,6.6651,6.672,6.6725,6.6805,6.6806,6.692,6.6909,6.6906,6.6904,6.6977,6.697,6.7214,6.7246,6.7036,6.7038,6.7039,0,6.6328,6.6393,6.6435,6.6474,6.6498,6.6562,6.6601,6.6596,6.6638,6.669,6.674,6.6806,6.6859,6.6972,6.699,6.7051,6.7041,6.7122,6.705,6.705,6.7041,6.7037,6.7043,6.7136,6.7138,6.714,6.7142,0,6.6516,6.6515,6.6572,6.663,6.6677,6.6722,6.6765,6.6799,6.6799,6.6847,6.6917,6.6958,6.704,6.7106,6.7166,6.7189,6.7166,6.7165,6.7185,6.7188,6.7183,6.7186,6.6944,6.7159,6.7157,6.7156,6.7155,6.7154,6.6651,6.6707,6.6745,6.6809,6.684,6.6881,6.6935,6.695,6.7009,6.7074,6.7068,6.7146,6.7185,6.7263,6.7291,6.7352,6.7324,6.7353,6.7361,6.7368,6.7375,6.7174,6.7363,6.7362,6.7362,6.7361,6.7361,0,6.6837,6.6859,6.6918,6.6978,6.7029,6.7002,6.7047,6.7092,6.716,6.7199,6.7251,6.7332,6.7396,6.7419,6.7482,6.7526,6.7517,6.7543,6.7539,6.7545,6.7397,6.7372,6.7549,6.7549,6.7549,6.7549,6.7549,6.7549,6.6939,6.7033,6.7037,6.7146,6.7168,6.7244,6.7272,6.7309,6.734,6.743,6.7483,6.7498,6.753,6.7595,6.7653,6.7658,6.7682,6.7712,6.7713,6.7574,6.7555,6.7537,6.7514,6.7718,6.7718,6.7856,6.7857,6.7858]},{"header":{"parameterUnit":"m.s-1","parameterCategory":1,"la1":30.2991,"la2":30.254,"lo1":-89.0895,"lo2":-89.0444,"dy":0.0017,"dx":0.0017,"nx":28,"ny":28,"refTime":"2024-09-25T21:00:00:Z","depth":0,"parameterNumber":3,"parameterNumberName":"V-component_of_WINDS"},"data":[0,0,0,0,0,0,0,0,0,0,0,0,0,0,0,0,0,0,0,0,0,0,0,0,0,0,0,0,0,0,0,0,0,0,0,0,0,0,0,0,0,0,0,0,0,0,0,0,0,0,0,0,0,0,0,0,0,0,1.7765,1.7765,0,1.7765,1.7765,1.7765,1.7762,1.7762,1.7762,1.7762,1.7761,1.7761,1.7761,0,0,0,0,0,0,0,0,0,0,0,0,0,1.7759,1.7759,1.7765,1.7765,1.7765,1.7765,1.7765,1.7765,1.7762,1.7762,1.7762,1.7762,1.7761,1.7761,1.7761,0,0,0,0,0,0,0,0,0,0,0,0,0,1.776,1.7759,1.7765,1.7763,1.7763,1.7765,1.7765,1.7765,1.7762,1.7762,1.7762,1.7762,1.7761,1.7761,1.7761,1.7765,0,0,1.7762,1.7762,0,0,0,0,0,0,0,0,1.776,1.7761,1.7764,1.7763,1.7763,1.7764,1.7763,1.7765,1.7762,1.7763,1.7762,1.7762,1.7762,1.7762,1.7762,1.7765,1.7765,1.7762,1.7762,1.7762,1.7762,0,0,0,0,0,0,0,1.776,1.7761,1.7765,1.7764,1.7763,1.7762,1.7762,1.7763,1.7763,1.7763,1.7762,1.7763,1.7762,1.7762,1.7762,1.7765,1.7762,1.7762,1.7762,1.7762,1.7768,1.7768,0,0,0,0,0,0,1.7761,1.7761,1.7765,1.7765,1.7762,1.7762,1.7762,1.7764,1.7763,1.7763,1.7763,1.7762,1.7762,1.7762,1.7762,1.7765,1.7762,1.7762,1.7762,1.7768,1.7768,1.7768,0,0,0,0,0,0,1.776,1.7761,1.7765,1.7763,1.7763,1.7762,1.7764,1.7764,1.7764,1.7763,1.7763,1.7763,1.7762,1.7762,1.7764,1.7765,1.7762,1.7762,1.7768,1.7768,1.7768,1.7772,0,0,0,0,0,0,1.776,1.7761,1.7763,1.7763,1.7763,1.7767,1.7764,1.7764,1.7765,1.7764,1.7764,1.7763,1.7762,1.7764,1.7764,1.7765,1.7762,1.7767,1.7768,1.7768,1.7771,1.7772,1.7772,0,0,0,0,0,1.776,1.7764,1.7763,1.7764,1.7766,1.7767,1.7768,1.7766,1.7765,1.7766,1.7765,1.7763,1.7765,1.7764,1.7764,1.7766,1.7767,1.7768,1.7768,1.7771,1.7772,1.7772,0,0,0,0,0,0,1.7764,1.7764,1.7763,1.7767,1.7767,1.7767,1.7769,1.7767,1.7768,1.7767,1.7765,1.7765,1.7767,1.7766,1.7765,1.7768,1.7766,1.7766,1.7768,1.7769,1.7769,1.7769,1.7762,0,0,0,0,0,1.7765,1.7767,1.7767,1.7771,1.7771,1.777,1.777,1.7769,1.7769,1.7769,1.7768,1.7768,1.7768,1.7769,1.7769,1.7771,1.777,1.7772,1.7773,1.7773,1.7773,1.7773,1.7774,1.7769,1.7769,1.7769,0,0,1.7768,1.7768,1.777,1.7771,1.7771,1.7773,1.777,1.7772,1.7772,1.7769,1.7771,1.777,1.7769,1.7771,1.7772,1.7771,1.7774,1.7773,1.7774,1.7774,1.7773,1.7774,1.7774,1.7769,1.7769,1.7769,0,0,1.7774,1.7775,1.7777,1.7777,1.7777,1.7776,1.7777,1.7776,1.7776,1.7777,1.7775,1.7775,1.7776,1.7775,1.7775,1.7779,1.7777,1.7779,1.7781,1.7781,1.7782,1.7782,1.7783,1.7783,1.7779,1.7779,1.7779,0,1.7778,1.778,1.7779,1.778,1.778,1.7778,1.778,1.778,1.778,1.778,1.7778,1.7778,1.7778,1.7779,1.778,1.778,1.7779,1.7779,1.7782,1.7782,1.7782,1.7783,1.7783,1.7779,1.7779,1.7779,1.7779,0,1.7784,1.7785,1.7787,1.7787,1.7787,1.7789,1.7787,1.7788,1.7786,1.7785,1.7786,1.7785,1.7784,1.7784,1.7783,1.7785,1.7784,1.7782,1.778,1.7783,1.7784,1.7784,1.778,1.7779,1.7779,1.7779,0,0,1.7793,1.7791,1.7792,1.7791,1.7791,1.7791,1.7792,1.7792,1.7792,1.7792,1.7792,1.7792,1.779,1.779,1.7788,1.7788,1.779,1.7786,1.7786,1.7787,1.7791,1.7792,1.7792,1.7789,1.7789,1.7789,1.7791,0,1.7798,1.78,1.7798,1.7801,1.7801,1.7798,1.7799,1.7798,1.7797,1.7796,1.7795,1.7794,1.7792,1.7792,1.7792,1.779,1.7791,1.779,1.7788,1.7788,1.7788,1.7793,1.7794,1.7796,1.7791,1.7791,1.7791,0,1.7804,1.7804,1.7807,1.7805,1.7805,1.7806,1.7804,1.7805,1.7803,1.7802,1.7801,1.7799,1.7798,1.7796,1.7795,1.7795,1.7794,1.7792,1.7792,1.7792,1.779,1.7792,1.7797,1.7797,1.7791,1.7791,1.7791,0,1.781,1.781,1.7811,1.7811,1.7809,1.7809,1.7808,1.7807,1.7806,1.7805,1.7804,1.7803,1.7802,1.7801,1.7798,1.7797,1.7797,1.7795,1.7795,1.7795,1.7796,1.7796,1.78,1.7795,1.7795,1.7795,1.7795,0,1.7816,1.7817,1.7814,1.7814,1.7815,1.7813,1.7814,1.7812,1.781,1.781,1.7807,1.7807,1.7803,1.7802,1.78,1.7799,1.7799,1.7797,1.7796,1.7797,1.7797,1.7797,1.7796,1.7795,1.7795,1.7795,1.7795,0,1.7822,1.782,1.7821,1.7819,1.7818,1.7819,1.7816,1.7816,1.7814,1.7814,1.7814,1.781,1.7809,1.7806,1.7803,1.7802,1.7801,1.78,1.7802,1.7801,1.7802,1.7802,1.7805,1.7805,1.7801,1.7801,1.7801,0,1.7826,1.7827,1.7824,1.7824,1.7823,1.7823,1.7822,1.7819,1.7818,1.7816,1.7816,1.7814,1.7813,1.781,1.7807,1.7805,1.7803,1.7805,1.7803,1.7804,1.7803,1.7803,1.7802,1.7805,1.7805,1.7805,1.7805,0,1.7832,1.7831,1.783,1.7829,1.7828,1.7827,1.7826,1.7826,1.7822,1.7821,1.782,1.7818,1.7816,1.7814,1.7811,1.7809,1.7806,1.7806,1.7806,1.7807,1.7807,1.7807,1.7802,1.7806,1.7806,1.7806,1.7806,1.7806,1.7837,1.7837,1.7835,1.7834,1.7833,1.7832,1.7831,1.7829,1.7828,1.7826,1.7824,1.7822,1.7819,1.7815,1.7813,1.7811,1.781,1.781,1.781,1.781,1.781,1.7808,1.7811,1.7811,1.7811,1.7811,1.7811,0,1.7843,1.7841,1.784,1.7838,1.7837,1.7835,1.7833,1.7832,1.7831,1.7829,1.7827,1.7825,1.7822,1.7819,1.7816,1.7815,1.7814,1.7815,1.7814,1.7814,1.7812,1.7812,1.7816,1.7816,1.7816,1.7816,1.7816,1.7816,1.7846,1.7846,1.7844,1.7843,1.7841,1.784,1.7839,1.7837,1.7835,1.7833,1.7831,1.7828,1.7825,1.7822,1.7819,1.7818,1.7817,1.7818,1.7817,1.7815,1.7814,1.7814,1.7814,1.7818,1.7818,1.7819,1.7819,1.7819]}]]